[[{"header":{"parameterUnit":"m.s-1","parameterCategory":1,"la1":30.2991,"la2":30.254,"lo1":-89.0895,"lo2":-89.0444,"dy":0.0017,"dx":0.0017,"nx":28,"ny":28,"refTime":"2025-11-19T03:00:00:Z","depth":0,"parameterNumber":2,"parameterNumberName":"U-component_of_WINDS"},"data":[0,0,0,0,0,0,0,0,0,0,0,0,0,0,0,0,0,0,0,0,0,0,0,0,0,0,0,0,0,0,0,0,0,0,0,0,0,0,0,0,0,0,0,0,0,0,0,0,0,0,0,0,0,0,0,0,0,0,-0.1526,-0.1525,0,-0.1451,-0.145,-0.1449,-0.1385,-0.1384,-0.1384,-0.1383,-0.1308,-0.1307,-0.1305,0,0,0,0,0,0,0,0,0,0,0,0,0,-0.1616,-0.1614,-0.1526,-0.1525,-0.1524,-0.1451,-0.145,-0.1449,-0.1385,-0.1384,-0.1383,-0.1383,-0.1309,-0.1307,-0.1305,0,0,0,0,0,0,0,0,0,0,0,0,0,-0.1563,-0.1614,-0.1526,-0.1483,-0.1479,-0.1451,-0.145,-0.1449,-0.1385,-0.1384,-0.1383,-0.1382,-0.1309,-0.1307,-0.1305,-0.1315,0,0,-0.1299,-0.1298,0,0,0,0,0,0,0,0,-0.1566,-0.1559,-0.149,-0.1486,-0.1481,-0.1426,-0.1454,-0.1404,-0.1386,-0.1421,-0.1383,-0.1382,-0.1348,-0.1343,-0.1332,-0.1311,-0.1308,-0.1299,-0.1298,-0.1297,-0.1296,0,0,0,0,0,0,0,-0.1569,-0.1562,-0.1496,-0.1489,-0.1484,-0.1469,-0.146,-0.1445,-0.1392,-0.1418,-0.1413,-0.1405,-0.1346,-0.1334,-0.1329,-0.1307,-0.1299,-0.1297,-0.1296,-0.1295,-0.1294,-0.1295,0,0,0,0,0,0,-0.1579,-0.1566,-0.1499,-0.1494,-0.1521,-0.1468,-0.1458,-0.1445,-0.1392,-0.1382,-0.1406,-0.1402,-0.1338,-0.1332,-0.1326,-0.1336,-0.1297,-0.1295,-0.1294,-0.1293,-0.1294,-0.1295,0,0,0,0,0,0,-0.1582,-0.1574,-0.1502,-0.1528,-0.1518,-0.1468,-0.1453,-0.1444,-0.1432,-0.1383,-0.1373,-0.1403,-0.1336,-0.1329,-0.1319,-0.1332,-0.1294,-0.1292,-0.1291,-0.1293,-0.1295,-0.1354,0,0,0,0,0,0,-0.1584,-0.1575,-0.1577,-0.1529,-0.1517,-0.1494,-0.1454,-0.1443,-0.1429,-0.1423,-0.1378,-0.1369,-0.1335,-0.1322,-0.1317,-0.1329,-0.1291,-0.129,-0.1292,-0.1294,-0.135,-0.1357,-0.1363,0,0,0,0,0,-0.1588,-0.1597,-0.1578,-0.157,-0.1519,-0.1495,-0.1488,-0.1448,-0.143,-0.1432,-0.1401,-0.1371,-0.1332,-0.1321,-0.1315,-0.1327,-0.1289,-0.1291,-0.1294,-0.1347,-0.1356,-0.1363,0,0,0,0,0,0,-0.1648,-0.1589,-0.1568,-0.1561,-0.1534,-0.1484,-0.1486,-0.1458,-0.1436,-0.1432,-0.1384,-0.1374,-0.1369,-0.1347,-0.1336,-0.1335,-0.1306,-0.1308,-0.1349,-0.1357,-0.1363,-0.1369,-0.1289,0,0,0,0,0,-0.166,-0.1645,-0.1595,-0.1595,-0.1582,-0.1537,-0.1525,-0.1497,-0.1467,-0.1455,-0.1422,-0.1395,-0.1377,-0.1365,-0.1346,-0.1347,-0.1337,-0.1352,-0.1359,-0.1364,-0.1366,-0.1367,-0.1374,-0.1304,-0.1304,-0.1304,0,0,-0.1686,-0.1652,-0.1646,-0.1606,-0.1581,-0.1568,-0.1527,-0.1514,-0.1505,-0.1453,-0.1441,-0.1417,-0.1383,-0.1379,-0.1376,-0.136,-0.1383,-0.1367,-0.1372,-0.1371,-0.1371,-0.1377,-0.1383,-0.1305,-0.1305,-0.1305,0,0,-0.1726,-0.1698,-0.1695,-0.1672,-0.1635,-0.1605,-0.1605,-0.156,-0.1542,-0.153,-0.1492,-0.148,-0.1449,-0.1427,-0.1412,-0.1447,-0.1418,-0.1442,-0.1475,-0.1477,-0.1482,-0.1487,-0.1501,-0.1506,-0.1444,-0.1444,-0.1444,0,-0.1762,-0.174,-0.1697,-0.1688,-0.1672,-0.1625,-0.1623,-0.1602,-0.1562,-0.1553,-0.1536,-0.1498,-0.1471,-0.1463,-0.1471,-0.146,-0.146,-0.1446,-0.1485,-0.1489,-0.1493,-0.1506,-0.1511,-0.1447,-0.1447,-0.1446,-0.1446,0,-0.1787,-0.1773,-0.1775,-0.1737,-0.1722,-0.1716,-0.1674,-0.1664,-0.1638,-0.1611,-0.16,-0.1568,-0.1542,-0.1537,-0.1511,-0.1526,-0.1518,-0.1494,-0.1464,-0.1504,-0.1515,-0.1519,-0.1451,-0.145,-0.1449,-0.1449,0,0,-0.1861,-0.1802,-0.1803,-0.1787,-0.1744,-0.1733,-0.1726,-0.17,-0.1693,-0.1667,-0.1661,-0.1638,-0.1616,-0.1599,-0.1571,-0.1572,-0.1604,-0.1548,-0.1547,-0.1561,-0.162,-0.1639,-0.1645,-0.1585,-0.1586,-0.1587,-0.1623,0,-0.1895,-0.1879,-0.1842,-0.1838,-0.1825,-0.1782,-0.1776,-0.175,-0.1725,-0.1711,-0.1684,-0.1668,-0.164,-0.163,-0.1629,-0.16,-0.1616,-0.1597,-0.158,-0.158,-0.1591,-0.1651,-0.167,-0.1706,-0.1627,-0.1628,-0.1629,0,-0.1932,-0.1909,-0.1904,-0.1864,-0.1858,-0.1853,-0.1828,-0.1815,-0.1786,-0.1768,-0.175,-0.1719,-0.1711,-0.1685,-0.1674,-0.1662,-0.1654,-0.1639,-0.1639,-0.1636,-0.1607,-0.1651,-0.1716,-0.1722,-0.1635,-0.1634,-0.1634,0,-0.1988,-0.1956,-0.195,-0.1937,-0.189,-0.1888,-0.1868,-0.1838,-0.1826,-0.1804,-0.1797,-0.1775,-0.1763,-0.1747,-0.1712,-0.1695,-0.1706,-0.1676,-0.1692,-0.1693,-0.1696,-0.1696,-0.1763,-0.169,-0.169,-0.169,-0.1689,0,-0.203,-0.2029,-0.1975,-0.1971,-0.1969,-0.1927,-0.1927,-0.1904,-0.1878,-0.1869,-0.1831,-0.1824,-0.1778,-0.1766,-0.1739,-0.1735,-0.173,-0.1716,-0.1709,-0.172,-0.1722,-0.1714,-0.1711,-0.1691,-0.1691,-0.169,-0.169,0,-0.2092,-0.2055,-0.2046,-0.2003,-0.1992,-0.1993,-0.1957,-0.1952,-0.1926,-0.1916,-0.1911,-0.187,-0.1855,-0.1818,-0.1793,-0.1775,-0.1779,-0.1766,-0.1789,-0.1785,-0.1804,-0.1803,-0.1867,-0.1874,-0.1796,-0.1797,-0.1798,0,-0.2121,-0.2119,-0.2077,-0.2069,-0.2051,-0.2038,-0.2026,-0.1985,-0.1974,-0.1943,-0.1942,-0.1924,-0.1907,-0.1886,-0.1854,-0.1835,-0.1822,-0.1846,-0.1818,-0.183,-0.1823,-0.1824,-0.1825,-0.1852,-0.1853,-0.1853,-0.1854,0,-0.2177,-0.216,-0.2143,-0.2122,-0.2108,-0.2089,-0.2068,-0.2064,-0.2019,-0.2009,-0.1993,-0.198,-0.1956,-0.1939,-0.1916,-0.1897,-0.1869,-0.1863,-0.1866,-0.1877,-0.1892,-0.1886,-0.1806,-0.1862,-0.1861,-0.186,-0.186,-0.186,-0.2224,-0.2222,-0.2192,-0.2176,-0.2156,-0.2138,-0.2132,-0.2105,-0.2091,-0.2068,-0.2045,-0.2032,-0.2005,-0.1972,-0.1955,-0.1945,-0.1931,-0.1935,-0.1936,-0.1938,-0.1943,-0.1893,-0.1941,-0.1941,-0.194,-0.194,-0.194,0,-0.2279,-0.2259,-0.2244,-0.2216,-0.2204,-0.2179,-0.2155,-0.2147,-0.2136,-0.2113,-0.2098,-0.2081,-0.2065,-0.2033,-0.2015,-0.2013,-0.2,-0.201,-0.201,-0.2007,-0.1957,-0.1956,-0.2021,-0.2021,-0.2021,-0.2021,-0.2021,-0.2021,-0.2307,-0.2302,-0.2281,-0.2267,-0.2246,-0.2233,-0.2222,-0.2206,-0.2187,-0.217,-0.2157,-0.2136,-0.211,-0.209,-0.2075,-0.2066,-0.2062,-0.2076,-0.2064,-0.2018,-0.201,-0.2003,-0.2002,-0.2075,-0.2076,-0.2114,-0.2115,-0.2115]},{"header":{"parameterUnit":"m.s-1","parameterCategory":1,"la1":30.2991,"la2":30.254,"lo1":-89.0895,"lo2":-89.0444,"dy":0.0017,"dx":0.0017,"nx":28,"ny":28,"refTime":"2025-11-19T03:00:00:Z","depth":0,"parameterNumber":3,"parameterNumberName":"V-component_of_WINDS"},"data":[0,0,0,0,0,0,0,0,0,0,0,0,0,0,0,0,0,0,0,0,0,0,0,0,0,0,0,0,0,0,0,0,0,0,0,0,0,0,0,0,0,0,0,0,0,0,0,0,0,0,0,0,0,0,0,0,0,0,1.5895,1.5895,0,1.5871,1.5871,1.5871,1.5861,1.5861,1.5861,1.5861,1.5835,1.5834,1.5834,0,0,0,0,0,0,0,0,0,0,0,0,0,1.5931,1.593,1.5895,1.5895,1.5895,1.5871,1.5871,1.5871,1.5861,1.5861,1.5861,1.5861,1.5835,1.5834,1.5834,0,0,0,0,0,0,0,0,0,0,0,0,0,1.5912,1.593,1.5895,1.5887,1.5886,1.5872,1.5871,1.5871,1.5861,1.5861,1.5861,1.5861,1.5836,1.5834,1.5833,1.5825,0,0,1.583,1.583,0,0,0,0,0,0,0,0,1.5913,1.5911,1.5888,1.5887,1.5886,1.5869,1.5874,1.5855,1.5861,1.587,1.5861,1.5861,1.5846,1.5844,1.584,1.5824,1.5823,1.583,1.5829,1.5829,1.5829,0,0,0,0,0,0,0,1.5914,1.5912,1.5886,1.5888,1.5887,1.5884,1.5881,1.5871,1.5858,1.5869,1.5868,1.5866,1.5846,1.5841,1.5839,1.5823,1.583,1.5829,1.5828,1.5828,1.58,1.58,0,0,0,0,0,0,1.5917,1.5913,1.5887,1.5885,1.59,1.5883,1.588,1.5874,1.5858,1.5856,1.5866,1.5865,1.5842,1.584,1.5838,1.5828,1.5829,1.5828,1.5827,1.58,1.58,1.58,0,0,0,0,0,0,1.5918,1.5915,1.5887,1.5899,1.5895,1.5882,1.5876,1.5874,1.5869,1.5856,1.5853,1.5863,1.5842,1.5839,1.5829,1.5827,1.5827,1.5826,1.58,1.58,1.58,1.5807,0,0,0,0,0,0,1.5919,1.5915,1.5912,1.5899,1.5894,1.5879,1.5876,1.5873,1.5867,1.5867,1.5852,1.585,1.5842,1.583,1.5828,1.5825,1.5826,1.58,1.58,1.58,1.5807,1.5807,1.5807,0,0,0,0,0,1.5921,1.5915,1.5912,1.5909,1.5891,1.5879,1.5876,1.5868,1.5867,1.5864,1.5855,1.5851,1.5827,1.5829,1.5826,1.5823,1.58,1.58,1.58,1.5807,1.5807,1.5807,0,0,0,0,0,0,1.5928,1.5913,1.591,1.59,1.5891,1.5877,1.5873,1.5868,1.5859,1.5859,1.5848,1.5845,1.5835,1.5828,1.5831,1.5815,1.5813,1.5813,1.582,1.582,1.582,1.5822,1.5825,0,0,0,0,0,1.5929,1.5921,1.5908,1.59,1.5896,1.5885,1.588,1.5874,1.5864,1.586,1.5851,1.5841,1.5831,1.5825,1.5816,1.5806,1.5803,1.5802,1.5803,1.5803,1.5802,1.5796,1.5796,1.5799,1.5799,1.5799,0,0,1.593,1.5921,1.5916,1.5902,1.5894,1.5886,1.5882,1.5874,1.5867,1.5859,1.5848,1.5841,1.5829,1.5819,1.5814,1.5813,1.5801,1.5803,1.5803,1.5802,1.5796,1.5796,1.5796,1.5799,1.5799,1.5799,0,0,1.5927,1.592,1.5913,1.5905,1.5894,1.5887,1.5885,1.5872,1.5867,1.5857,1.585,1.5843,1.5826,1.5818,1.5812,1.5808,1.5803,1.5805,1.5806,1.58,1.58,1.58,1.5798,1.5798,1.5804,1.5804,1.5804,0,1.593,1.5918,1.5909,1.5901,1.5895,1.5888,1.5881,1.5874,1.586,1.5855,1.5854,1.5834,1.5826,1.5814,1.5813,1.5808,1.5806,1.5806,1.5801,1.58,1.58,1.5798,1.5798,1.5804,1.5804,1.5804,1.5804,0,1.5921,1.5913,1.5909,1.5896,1.5889,1.5882,1.5872,1.5866,1.5861,1.5855,1.5844,1.5834,1.5822,1.5819,1.5814,1.5806,1.5806,1.5803,1.5801,1.58,1.5798,1.5798,1.5805,1.5805,1.5805,1.5805,0,0,1.5922,1.5906,1.5904,1.5899,1.5886,1.5879,1.5871,1.586,1.5856,1.5846,1.5839,1.5826,1.5824,1.5817,1.5811,1.5806,1.5803,1.5804,1.5803,1.5804,1.5794,1.5796,1.5795,1.58,1.58,1.58,1.5795,0,1.5918,1.5904,1.5897,1.5885,1.5878,1.5871,1.5864,1.5855,1.5849,1.5841,1.5833,1.5824,1.5822,1.5818,1.5813,1.5804,1.5801,1.5805,1.5793,1.5793,1.5796,1.5794,1.5796,1.5792,1.5794,1.5794,1.5794,0,1.5911,1.5902,1.5891,1.5879,1.5876,1.587,1.5859,1.5852,1.5842,1.5838,1.583,1.5825,1.5816,1.5815,1.5803,1.5806,1.58,1.5796,1.5795,1.5793,1.5793,1.5792,1.579,1.579,1.5793,1.5793,1.5793,0,1.5912,1.5898,1.5889,1.5885,1.5871,1.5867,1.5861,1.5851,1.5846,1.5837,1.5833,1.5822,1.5817,1.5809,1.5801,1.5801,1.5789,1.5788,1.5785,1.5785,1.5782,1.5782,1.5779,1.5779,1.5779,1.5779,1.5779,0,1.5908,1.5901,1.589,1.5885,1.5877,1.5868,1.5861,1.5854,1.5846,1.5839,1.5832,1.5825,1.5815,1.5807,1.58,1.5791,1.5789,1.5785,1.5783,1.5785,1.5785,1.5781,1.5781,1.5779,1.5779,1.5779,1.5779,0,1.5908,1.5901,1.5891,1.5879,1.5876,1.5871,1.5861,1.5855,1.5848,1.584,1.5837,1.5827,1.5817,1.5808,1.5795,1.5791,1.5781,1.5779,1.5785,1.5784,1.5781,1.5781,1.5775,1.5773,1.5775,1.5775,1.5775,0,1.5906,1.5901,1.5889,1.5884,1.5878,1.5871,1.5865,1.5857,1.5851,1.5839,1.5835,1.5825,1.5817,1.5802,1.5793,1.5783,1.578,1.5779,1.5779,1.5781,1.578,1.578,1.578,1.5779,1.5779,1.5779,1.5779,0,1.5902,1.5899,1.5891,1.5882,1.5876,1.5868,1.586,1.5857,1.5847,1.5841,1.5831,1.5825,1.5812,1.5802,1.5791,1.5785,1.578,1.5779,1.5778,1.578,1.5783,1.5781,1.5785,1.5779,1.5779,1.5779,1.5779,1.5779,1.5901,1.5896,1.5887,1.5879,1.5872,1.5865,1.5859,1.5853,1.5845,1.5834,1.583,1.582,1.581,1.5796,1.5789,1.5781,1.578,1.5778,1.5778,1.5778,1.5778,1.5785,1.5779,1.5779,1.5779,1.5779,1.5779,0,1.5897,1.5891,1.5884,1.5873,1.5867,1.5864,1.5855,1.5849,1.5841,1.5833,1.5825,1.5814,1.5805,1.5796,1.5786,1.5781,1.5779,1.5779,1.5779,1.5777,1.578,1.5782,1.5781,1.5781,1.5781,1.5781,1.5781,1.5781,1.5894,1.5886,1.5881,1.587,1.5864,1.5855,1.585,1.5843,1.5837,1.5825,1.5818,1.5812,1.5803,1.5793,1.5784,1.5781,1.5778,1.5778,1.5775,1.5777,1.5777,1.5777,1.5779,1.5778,1.5778,1.5774,1.5773,1.5773]}]]